Погода в Андриановичах

Россия / Свердловская область     59°55′44″N   60°36′09″E
темп.,
°C
ветер,
м/с
пор.,
м/с
влажн.,
%
обл.,
%
осадки,
мм/ч
давл.,
гПа
погр.,
м
20 мая, пт
пт2023:00+4с139394 1.4 1001184
02:00+3сз2497100 0.4 1001450
05:00+3зсз259698 0.4 1000431
08:00+5з457691 0.0 1000941
11:00+7з5758100 0.1 10011613
14:00+8з6858100 0.0 10021538
17:00+8з696096 0.0 10031326
20:00+5з5973100 0.0 1004692
21 мая, сб
сб2123:00+3з378582 0.0 1004300
02:000сз229486 0.0 100433
05:00+1з1191100 0.0 100419
08:00+5с127091 0.0 1004693
11:00+4ссв3489100 0.1 1004545
14:00+4ссв3490100 0.1 1004628
17:00+4ссв3591100 0.4 1004536
20:00+4ссв3583100 0.1 1003598
22 мая, вс
вс2223:00+3ссв4892100 0.1 1001542
02:00+2с41097100 0.4 998502
05:000с51399100 4.8 995502
08:000с513100100 13.9 991594
11:00+1с411100100 21.1 989535
14:00+2с39100100 1.3 988299
17:00+3ссз25100100 2.4 989168
20:00+2ююз13100100 0.3 989142
23 мая, пн
пн2323:00+2юз37100100 0.9 990425
02:00+1юз41199100 1.1 991575
05:00+1ююз499569 1.3 993464
08:00+3ююз369499 0.0 994758
11:00+6ююз478965 0.2 9951118
14:00+7ююз588295 0.6 9961273
17:00+8ю478293 1.1 9971037
20:00+6ююв259099 0.4 998174
24 мая, вт
вт2423:00+2ююв2497100 0.4 99970
02:00+1ю279787 0.0 1001123
05:00+2ю2897100 0.0 1002226
08:00+5ююз378987 0.0 1004503
11:00+7ююз457695 0.2 10061223
14:00+7ююз3579100 0.1 1009964
17:00+8ю3473100 0.2 1010943
20:00+7ююв248672 0.3 1011169